星链-37280(STARLINK-37280)

导读

STARLINK-37280(NORAD编号68511)是SpaceX星链星座中的一颗卫星,属于星链项目扩容批次的组网卫星,被纳入Starlink Gen2星座部署计划,用于扩展全球卫星互联网覆盖范围。 作为低轨通信卫星,它运行在近地轨道,依托星链星座设计可为偏远地区、移动场景提供宽带互联网接入服务。截至2026年3月,SpaceX已累计发射超1.1万颗星链卫星,其中超八成在轨正常运行,该卫星是星链全球组网进程中的组成单元,助力星链实现全球无缝覆盖的目标。

Basic Information
目录编号:
68511
目录名称:
STARLINK-37280
国际标识:
2026-068D
轨道中心:
EARTH
卫星名称:
星链-37280
卫星全名:
星链-37280(STARLINK-37280)
卫星状态:
在轨 (已飞行167 天)
发射日期:
2026-03-30 UTC
国别 :
美国 (US)
星等 :
--
This satellite is enrolled in the Space Conjunction Data Service (SCDS) and the current flight risk assessment level is: No High Risk
Orbit Information
数据来源 国际轨道数据
星历时间: 2026-09-13T05:40:32+0800
13小时前
查看轨道信息
半长轴: 6840.847km
偏心率: 0.0001329
轨道倾角: 53.160°
近地点辐角 94.386°
升交点赤经 329.230°
平近点角 265.729°
近地点: 461.8km
远地点: 463.62km
周期: 93.848分钟
每日圈数: 15.343979
Detailed Information
固有亮度:
5
最大亮度:
2.5
卫星平台:
Starlink V1.0
覆盖范围:
全球
运营商:
太空探索技术公司
运营商所在国:
美国
制造商(研发单位):
太空探索技术公司
制造商所在国:
美国
使用方式:
暂无
Satellite Introduction
Starlink 计划是 SpaceX 推出的全球卫星互联网项目,通过发射低轨道卫星,为全球尤其是偏远地区提供高速、低延迟的互联网服务。自 2019 年起,Starlink 已部署数千颗卫星,旨在缩小全球数字鸿沟,推动互联网普及。该项目还为军事、航空等行业提供通信支持,带来广泛经济效益。
2D Orbit Map
3D Orbit Map
Orbit Altitude Analysis Chart
Orbit Inclination Analysis Chart
Orbit Comprehensive Analysis Chart
View Comprehensive Chart
Conjunction Data List
Event ID Objects TCA Miss Dist (km) Collision Risk Probability Collision Risk Index (CRI) Action
CDM_260915-045206-125706-851121
2026-09-15T
04:52:49+0000
0.488 km
远距离
1.416615E-4 高风险 0.78
CDM_260915-150206-125706-851121
2026-09-15T
15:02:28+0000
0.619 km
远距离
7.586631E-5 中风险 0.73
CDM_260915-044005-477906-851121
2026-09-15T
04:40:18+0000
0.628 km
远距离
7.378166E-5 中风险 0.72
CDM_260914-165605-477906-851121
2026-09-14T
16:56:51+0000
0.993 km
远距离
1.693863E-5 中风险 0.6
CDM_260914-183005-477906-851121
2026-09-14T
18:30:39+0000
1.583 km
极远距离
3.532956E-6 低风险 0.46
CDM_260908-140903-052006-851122
2026-09-08T
14:09:46+0000
2.287 km
极远距离
1.953873E-6 低风险 0.41
CDM_260915-163606-125706-851121
2026-09-15T
16:36:16+0000
2.360 km
极远距离
1.273256E-6 低风险 0.37
CDM_260915-062606-125706-851121
2026-09-15T
06:26:37+0000
2.420 km
极远距离
1.217001E-6 低风险 0.37
CDM_260914-021505-927106-851121
2026-09-14T
02:15:56+0000
2.281 km
极远距离
1.072718E-6 低风险 0.36
CDM_260915-031906-125706-851121
2026-09-15T
03:19:01+0000
2.733 km
极远距离
1.001976E-6 低风险 0.35
Miss Distance Evolution Trend with All Objects
Collision Probability Evolution Trend with All Objects